This demonstration page uses our WeatherBlox Daily Observations layout. Learn more.

Left ArrowRight Arrow

34.16533, -84.80231

Hourly Observations for August 19, 2018

Temp ( °F °C ) Dew Point ( °F °C ) Humidity (%) Winds ( mph kmh ) Pressure ( in mb ) Visibility ( mi km ) Precip ( " mm )
12:06 am 00:06 Cloudy 73 22.8 73 22.8 100 100 VRB 3 6 30.00 1016 10 16 0.00 0.00
12:42 am 00:42 Cloudy 73 22.8 73 22.8 100 100 VRB 3 6 30.00 1016 10 16 0.00 0.00
12:53 am 00:53 Cloudy 73 22.8 73 22.8 100 100 Calm 29.95 1014 10 16 0.00 0.00
1:06 am 01:06 Cloudy 73 22.8 73 22.8 100 100 Calm 30.00 1016 9 14 0.00 0.00
1:53 am 01:53 Cloudy 73 22.8 73 22.8 100 100 Calm 29.94 1014 9 14 0.00 0.00
2:53 am 02:53 Cloudy 73 22.8 73 22.8 100 100 Calm 29.93 1014 9 14 0.00 0.00
3:53 am 03:53 Cloudy 73 22.8 73 22.8 100 100 Calm 29.93 1014 9 14 0.00 0.00
4:22 am 04:22 Cloudy 73 22.8 73 22.8 100 100 Calm 29.97 1015 9 14 0.00 0.00
4:53 am 04:53 Cloudy 73 22.8 73 22.8 100 100 Calm 29.93 1014 9 14 0.00 0.00
5:39 am 05:39 Mostly Cloudy 73 22.8 73 22.8 100 100 Calm 29.97 1015 8 13 0.00 0.00
5:53 am 05:53 Mostly Cloudy 73 22.8 73 22.8 100 100 Calm 29.94 1014 8 13 0.00 0.00
6:53 am 06:53 Mostly Cloudy 73 22.8 73 22.8 100 100 Calm 29.96 1015 8 13 0.00 0.00
7:53 am 07:53 Cloudy 73 22.8 73 22.8 100 100 Calm 29.96 1015 7 11 0.00 0.00
8:53 am 08:53 Cloudy 76 24.4 74 23.3 94 94 Calm 29.98 1015 9 14 0.00 0.00
9:13 am 09:13 Mostly Cloudy 77 25 74 23.3 90 90 Calm 30.00 1016 9 14 0.00 0.00
9:53 am 09:53 Cloudy 77 25 73 22.8 88 88 Calm 29.99 1016 9 14 0.00 0.00
10:13 am 10:13 Cloudy 77 25 74 23.3 90 90 Calm 30.00 1016 9 14 0.00 0.00
10:25 am 10:25 Cloudy 78 25.6 74 23.3 87 87 VRB 3 6 30.00 1016 9 14 0.00 0.00
10:32 am 10:32 Cloudy 78 25.6 73 22.8 85 85 VRB 3 6 30.00 1016 10 16 0.00 0.00
10:39 am 10:39 Cloudy 79 26.1 73 22.8 82 82 Calm 30.00 1016 10 16 0.00 0.00
10:53 am 10:53 Cloudy 78 25.6 73 22.8 85 85 Calm 30.00 1016 10 16 0.00 0.00
11:53 am 11:53 Cloudy 78 25.6 72 22.2 82 82 VRB 5 7 30.00 1016 10 16 0.00 0.00
12:53 pm 12:53 Cloudy 79 26.1 73 22.8 82 82 VRB 3 6 29.99 1016 10 16 0.00 0.00
1:53 pm 13:53 Partly Cloudy 82 27.8 73 22.8 74 74 VRB 5 7 29.98 1015 10 16 0.00 0.00
2:53 pm 14:53 Mostly Cloudy 82 27.8 72 22.2 72 72 VRB 6 9 29.97 1015 10 16 0.00 0.00
3:53 pm 15:53 Mostly Sunny 84 28.9 73 22.8 70 70 VRB 6 9 29.95 1014 10 16 0.00 0.00
4:53 pm 16:53 Partly Cloudy 83 28.3 72 22.2 70 70 S 6 9 29.93 1014 10 16 0.00 0.00
5:53 pm 17:53 Partly Cloudy 84 28.9 73 22.8 70 70 S 5 7 29.93 1014 10 16 0.00 0.00
6:53 pm 18:53 Sunny 83 28.3 73 22.8 72 72 Calm 29.92 1013 10 16 0.00 0.00
7:53 pm 19:53 Sunny 80 26.7 77 25 90 90 Calm 29.93 1014 10 16 0.00 0.00
8:50 pm 20:50 Cloudy with Rain 75 24 73 23 94 94 SSW 7 11 30.00 1016 3 5 0.09 2.29
8:53 pm 20:53 Cloudy with Heavy Rain 75 23.9 74 23.3 96 96 SSW 7 11 29.96 1014 2 3 0.15 3.81
9:02 pm 21:02 Cloudy with Heavy Rain 74 23.3 74 23.3 100 100 SSW 3 6 30.00 1016 2 3 0.07 1.78
9:11 pm 21:11 Cloudy with Light Rain 74 23.3 74 23.3 100 100 Calm 30.00 1016 5 8 0.08 2.03
9:53 pm 21:53 Cloudy 75 23.9 75 23.9 100 100 Calm 29.96 1015 10 16 0.11 2.79
10:53 pm 22:53 Clear 73 22.8 73 22.8 100 100 Calm 29.97 1015 8 13 0.00 0.00
11:53 pm 23:53 Clear 73 22.8 73 22.8 100 100 Calm 29.98 1015 8 13 0.00 0.00

Powered by AerisWeather